Regional Weather Roundup
Issued by NWS Cleveland, OH

Home | Current Version | Previous Version | Text Only | Print | Product List | Glossary Off
Versions: 1 2 3 4 5 6 7 8 9 10 11 12 13 14 15 16 17 18 19 20 21 22 23 24 25 26 27 28 29 30 31 32 33 34 35 36 37 38 39 40 41 42 43 44 45 46 47 48 49 50

000
ASUS41 KCLE 032002
RWRCLE
OHIO REGIONAL WEATHER ROUNDUP
NATIONAL WEATHER SERVICE CLEVELAND, OH
400 PM EDT FRI JUL 03 2015

NOTE: "FAIR" INDICATES FEW OR NO CLOUDS BELOW 12,000 FEET WITH NO
SIGNIFICANT WEATHER AND/OR OBSTRUCTIONS TO VISIBILITY.

OHZ001>008-015>018-024>027-034-035-043-044-032100-
   NORTHWEST OHIO

CITY           SKY/WX    TMP DP  RH WIND       PRES   REMARKS
DEFIANCE       CLOUDY    74  54  49 CALM      29.93F
FINDLAY        PTSUNNY   75  56  51 N10       29.92F
TOLEDO EXPRESS CLOUDY    74  57  55 NE9       29.94F
TOLEDO EXEC    CLOUDY    70  52  52 NE7       29.96F
LIMA           PTSUNNY   75  61  61 VRB7      29.92F
$$

OHZ009>014-019>023-028>033-038-089-032100-
   NORTHEAST OHIO

CITY           SKY/WX    TMP DP  RH WIND       PRES   REMARKS
CLE-HOPKINS    PTSUNNY   72  57  59 N12       29.95F
CLE-LAKEFRONT  PTSUNNY   70  57  63 N16       29.92F
CUY CO. ARPT   PTSUNNY   75  54  46 NE8       29.94
LORAIN-ELYRIA  PTSUNNY   74  58  57 NE12      29.93F
ASHTABULA      MOSUNNY   73  55  53 N9        29.95F
AKRON-CANTON   PTSUNNY   77  56  48 CALM      29.93F
WOOSTER        MOSUNNY   78  56  46 CALM      29.92F
MANSFIELD      MOSUNNY   78  58  49 VRB3      29.93F
YOUNGSTOWN     CLOUDY    76  56  49 E7        29.93F
$$

OHZ042-051>053-060>062-070>072-077>081-032100-
  SOUTHWEST OHIO

CITY           SKY/WX    TMP DP  RH WIND       PRES   REMARKS
CINC-COVINGTON CLOUDY    74  65  73 N9        29.87S
CINC-LUNKEN    CLOUDY    74  65  73 NE10      29.87S
HAMILTON       CLOUDY    73  65  75 NE8       29.89S
DAYTON         CLOUDY    75  64  68 NE7       29.91S
WRIGHT-PAT AFB PTSUNNY   74  61  64 E7        29.89F
DAYTON GENERAL CLOUDY    72  60  66 E12       29.88F
WILMINGTON     CLOUDY    73  64  73 NE9       29.88F
$$

OHZ036-037-039>041-045>050-054>059-063>069-073>076-082>088-032100-
  CENTRAL AND SOUTHEAST OHIO

CITY           SKY/WX    TMP DP  RH WIND       PRES   REMARKS
COLUMBUS       CLOUDY    73  61  65 NE8       29.89F
OSU AIRPORT    LGT RAIN  71  64  78 NE6       29.90F
BOLTON FIELD   CLOUDY    70  64  83 N7        29.90F
RICKENBACK AFB NOT AVBL
NEWARK         CLOUDY    76  63  64 VRB3      29.89F
MARION         PTSUNNY   77  59  53 N7        29.92F
LANCASTER      LGT RAIN  71  63  75 NE8       29.89F
ZANESVILLE     NOT AVBL
NEW PHILLY     CLOUDY    78  61  55 NE8       29.91F
$$


USA.gov is the U.S. government's official web portal to all federal, state and local government web resources and services.